[[{"header":{"parameterUnit":"m.s-1","parameterCategory":1,"la1":30.2991,"la2":30.254,"lo1":-89.0895,"lo2":-89.0444,"dy":0.0017,"dx":0.0017,"nx":28,"ny":28,"refTime":"2026-01-10T09:00:00:Z","depth":0,"parameterNumber":2,"parameterNumberName":"U-component_of_WINDS"},"data":[0,0,0,0,0,0,0,0,0,0,0,0,0,0,0,0,0,0,0,0,0,0,0,0,0,0,0,0,0,0,0,0,0,0,0,0,0,0,0,0,0,0,0,0,0,0,0,0,0,0,0,0,0,0,0,0,0,0,0.4798,0.4798,0,0.479,0.479,0.479,0.4834,0.4836,0.4837,0.4838,0.4831,0.483,0.4828,0,0,0,0,0,0,0,0,0,0,0,0,0,0.4857,0.4855,0.4798,0.4798,0.4798,0.479,0.479,0.479,0.4834,0.4836,0.4837,0.4839,0.4832,0.483,0.4828,0,0,0,0,0,0,0,0,0,0,0,0,0,0.4838,0.4855,0.4799,0.4819,0.4821,0.479,0.479,0.479,0.4834,0.4836,0.4838,0.4839,0.4832,0.483,0.4828,0.4777,0,0,0.4822,0.4821,0,0,0,0,0,0,0,0,0.4839,0.4836,0.4816,0.4818,0.482,0.4815,0.4808,0.4786,0.4833,0.4829,0.4838,0.484,0.4824,0.4823,0.4817,0.4777,0.4777,0.4822,0.482,0.4819,0.4819,0,0,0,0,0,0,0,0.484,0.4837,0.4795,0.4816,0.4818,0.4831,0.483,0.4804,0.4816,0.483,0.4833,0.4831,0.4826,0.4819,0.4818,0.4777,0.4822,0.482,0.4819,0.4818,0.4699,0.4697,0,0,0,0,0,0,0.4839,0.4837,0.4796,0.4795,0.4834,0.4828,0.4827,0.4815,0.4817,0.4819,0.4829,0.4833,0.4822,0.482,0.4817,0.4762,0.482,0.4818,0.4816,0.4701,0.4699,0.4697,0,0,0,0,0,0,0.484,0.4834,0.4796,0.4817,0.4813,0.4825,0.481,0.4814,0.4807,0.4816,0.4819,0.482,0.4823,0.482,0.4788,0.4762,0.4817,0.4815,0.4703,0.47,0.4698,0.4647,0,0,0,0,0,0,0.4841,0.4834,0.4814,0.4816,0.4812,0.4765,0.4809,0.4812,0.4803,0.4808,0.4809,0.4811,0.4825,0.4791,0.4786,0.476,0.4813,0.4706,0.4702,0.4699,0.4651,0.4643,0.4635,0,0,0,0,0,0.4843,0.4799,0.4813,0.4807,0.4786,0.4763,0.4761,0.4777,0.4801,0.4782,0.4788,0.4811,0.4765,0.4787,0.4782,0.4755,0.4708,0.4703,0.4699,0.4654,0.4644,0.4636,0,0,0,0,0,0,0.4793,0.48,0.4815,0.477,0.4766,0.4771,0.4746,0.4765,0.4754,0.4759,0.4781,0.4781,0.4745,0.4747,0.4771,0.4708,0.4741,0.4735,0.4709,0.4699,0.4691,0.4693,0.4811,0,0,0,0,0,0.4777,0.4756,0.4764,0.4724,0.4721,0.4734,0.4725,0.4738,0.4735,0.4733,0.4737,0.4734,0.4719,0.4709,0.4696,0.4651,0.4654,0.4631,0.4623,0.4616,0.4612,0.4593,0.4583,0.4683,0.4683,0.4683,0,0,0.4743,0.4744,0.473,0.4714,0.4712,0.4693,0.4732,0.4709,0.4695,0.473,0.47,0.4703,0.4701,0.4664,0.4647,0.4664,0.4585,0.4611,0.4606,0.4605,0.4587,0.4578,0.4569,0.468,0.468,0.4681,0,0,0.4672,0.4669,0.4638,0.4636,0.4633,0.4643,0.4635,0.4638,0.4642,0.4613,0.4639,0.4624,0.4597,0.4596,0.4592,0.4525,0.4546,0.452,0.448,0.4461,0.4453,0.4446,0.4425,0.4417,0.4515,0.4515,0.4515,0,0.463,0.46,0.4619,0.4595,0.4589,0.462,0.459,0.4587,0.458,0.4576,0.4595,0.4565,0.4565,0.453,0.4514,0.4508,0.4503,0.452,0.4452,0.4446,0.444,0.442,0.4412,0.4512,0.4512,0.4512,0.4513,0,0.4551,0.4531,0.4506,0.45,0.4491,0.4464,0.448,0.4469,0.4484,0.4493,0.4465,0.4467,0.4456,0.4449,0.4462,0.4416,0.4427,0.4448,0.4482,0.4427,0.4409,0.4402,0.4508,0.4509,0.451,0.451,0,0,0.4446,0.4454,0.4444,0.4444,0.4445,0.4431,0.4406,0.4397,0.4389,0.4383,0.4366,0.4344,0.4366,0.4361,0.4375,0.4358,0.4309,0.4382,0.4383,0.4371,0.4263,0.4248,0.4239,0.4323,0.4322,0.4321,0.4264,0,0.4379,0.4338,0.4356,0.4314,0.4297,0.4329,0.4308,0.4308,0.4316,0.4304,0.4314,0.4299,0.4326,0.4325,0.4309,0.4318,0.4288,0.4322,0.4309,0.4309,0.4311,0.4229,0.4213,0.4159,0.4257,0.4256,0.4255,0,0.4295,0.4288,0.4245,0.4253,0.4247,0.4228,0.4223,0.421,0.4212,0.422,0.4216,0.4235,0.4215,0.4247,0.4221,0.4244,0.424,0.4244,0.4243,0.4243,0.4279,0.423,0.4142,0.4135,0.4243,0.4244,0.4245,0,0.4227,0.4207,0.4179,0.4177,0.4185,0.4172,0.4175,0.4178,0.4173,0.4169,0.4166,0.4159,0.4156,0.4151,0.4169,0.419,0.4142,0.4175,0.415,0.4149,0.4139,0.4139,0.4051,0.4132,0.4132,0.4133,0.4133,0,0.4151,0.4124,0.4149,0.4132,0.4104,0.4126,0.4098,0.4104,0.4108,0.4095,0.4121,0.4108,0.4132,0.4122,0.4136,0.4114,0.4112,0.4119,0.4124,0.4118,0.4117,0.4117,0.4122,0.413,0.4131,0.4131,0.4132,0,0.407,0.4085,0.4058,0.4069,0.4071,0.405,0.4061,0.4047,0.4058,0.4041,0.4038,0.4055,0.4046,0.4063,0.4055,0.4065,0.4036,0.4045,0.4035,0.4039,0.4013,0.4017,0.3923,0.3913,0.3999,0.3998,0.3997,0,0.4021,0.4002,0.4011,0.4005,0.4006,0.3994,0.399,0.4012,0.4006,0.4009,0.3995,0.3988,0.3983,0.3967,0.3979,0.3975,0.3985,0.3953,0.3985,0.3981,0.3988,0.399,0.399,0.3947,0.3946,0.3945,0.3944,0,0.3934,0.3944,0.3936,0.3932,0.3926,0.3923,0.3923,0.3916,0.394,0.3932,0.3923,0.392,0.3913,0.3907,0.3906,0.391,0.3932,0.3934,0.3929,0.3923,0.392,0.3924,0.402,0.3936,0.3937,0.3938,0.3938,0.3938,0.387,0.3856,0.3861,0.3853,0.3855,0.3855,0.3844,0.3855,0.3847,0.3844,0.3858,0.3846,0.3852,0.3853,0.3856,0.3849,0.3863,0.3854,0.3853,0.3851,0.3848,0.392,0.3848,0.3849,0.3849,0.3849,0.3849,0,0.3787,0.3793,0.3785,0.3785,0.3779,0.38,0.3802,0.3796,0.3786,0.3789,0.3785,0.3777,0.3771,0.3785,0.3782,0.3774,0.3784,0.3773,0.3775,0.3776,0.3833,0.384,0.3765,0.3765,0.3765,0.3765,0.3765,0.3765,0.3743,0.3721,0.3732,0.3713,0.372,0.3709,0.3709,0.371,0.3714,0.3703,0.3699,0.3708,0.3717,0.3716,0.3713,0.3718,0.3716,0.3702,0.371,0.3763,0.3772,0.378,0.3786,0.3701,0.3701,0.3654,0.3653,0.3653]},{"header":{"parameterUnit":"m.s-1","parameterCategory":1,"la1":30.2991,"la2":30.254,"lo1":-89.0895,"lo2":-89.0444,"dy":0.0017,"dx":0.0017,"nx":28,"ny":28,"refTime":"2026-01-10T09:00:00:Z","depth":0,"parameterNumber":3,"parameterNumberName":"V-component_of_WINDS"},"data":[0,0,0,0,0,0,0,0,0,0,0,0,0,0,0,0,0,0,0,0,0,0,0,0,0,0,0,0,0,0,0,0,0,0,0,0,0,0,0,0,0,0,0,0,0,0,0,0,0,0,0,0,0,0,0,0,0,0,2.3535,2.3536,0,2.3604,2.3605,2.3606,2.3624,2.3624,2.3623,2.3623,2.3692,2.3694,2.3696,0,0,0,0,0,0,0,0,0,0,0,0,0,2.3416,2.3418,2.3535,2.3536,2.3536,2.3604,2.3605,2.3606,2.3624,2.3624,2.3623,2.3623,2.3691,2.3694,2.3696,0,0,0,0,0,0,0,0,0,0,0,0,0,2.3475,2.3419,2.3535,2.3554,2.3556,2.3604,2.3605,2.3606,2.3624,2.3624,2.3623,2.3623,2.369,2.3693,2.3697,2.3729,0,0,2.3707,2.3708,0,0,0,0,0,0,0,0,2.3471,2.3479,2.355,2.3553,2.3555,2.3605,2.3588,2.3647,2.3625,2.3598,2.3623,2.3622,2.3663,2.3669,2.3683,2.3732,2.3735,2.3707,2.3709,2.371,2.3711,0,0,0,0,0,0,0,2.3467,2.3476,2.3562,2.3551,2.3554,2.3558,2.3566,2.3599,2.3633,2.3601,2.3602,2.361,2.3664,2.368,2.3685,2.3736,2.3707,2.371,2.3712,2.3713,2.3816,2.3817,0,0,0,0,0,0,2.346,2.3473,2.356,2.3564,2.3511,2.3561,2.357,2.359,2.3633,2.3639,2.3611,2.3611,2.3674,2.3681,2.3687,2.3729,2.371,2.3713,2.3715,2.3816,2.3817,2.3817,0,0,0,0,0,0,2.3458,2.3468,2.3557,2.3519,2.3531,2.3564,2.3586,2.3591,2.3607,2.3641,2.3646,2.362,2.3674,2.3682,2.3719,2.3732,2.3715,2.3718,2.3815,2.3816,2.3817,2.3813,0,0,0,0,0,0,2.3454,2.3467,2.348,2.3519,2.3533,2.3588,2.3587,2.3593,2.3613,2.3613,2.3651,2.3657,2.3674,2.3714,2.3722,2.3736,2.372,2.3814,2.3815,2.3817,2.3812,2.3814,2.3815,0,0,0,0,0,2.345,2.3475,2.3481,2.3491,2.355,2.3589,2.3597,2.3617,2.3613,2.3627,2.3649,2.3656,2.3729,2.3717,2.3727,2.3742,2.3813,2.3815,2.3817,2.3811,2.3813,2.3815,0,0,0,0,0,0,2.3436,2.3481,2.3487,2.3526,2.3554,2.3592,2.361,2.3618,2.3647,2.3647,2.367,2.3678,2.3713,2.3731,2.3717,2.3776,2.3771,2.3775,2.3764,2.3766,2.3767,2.3763,2.3723,0,0,0,0,0,2.3437,2.3466,2.3503,2.3534,2.3548,2.3576,2.3594,2.3607,2.3637,2.3648,2.3673,2.37,2.3729,2.3748,2.3777,2.3814,2.3823,2.3829,2.383,2.3832,2.3835,2.3857,2.3861,2.3823,2.3823,2.3823,0,0,2.344,2.3469,2.3485,2.3532,2.3555,2.3584,2.3586,2.3616,2.3638,2.3652,2.3689,2.3708,2.374,2.3777,2.3795,2.3793,2.3847,2.3834,2.3834,2.3837,2.3859,2.3863,2.3866,2.3824,2.3824,2.3824,0,0,2.3462,2.3486,2.3515,2.3538,2.3573,2.3592,2.3599,2.3636,2.365,2.3687,2.3699,2.3724,2.3774,2.3797,2.3815,2.3845,2.3853,2.3853,2.3862,2.3883,2.3886,2.3889,2.3901,2.3905,2.3856,2.3856,2.3856,0,2.3461,2.3507,2.3528,2.3559,2.3579,2.3594,2.3624,2.3645,2.3687,2.37,2.3698,2.3761,2.3784,2.3827,2.3835,2.3848,2.3857,2.385,2.3884,2.3887,2.389,2.3902,2.3906,2.3856,2.3856,2.3856,2.3856,0,2.3505,2.3536,2.3555,2.3597,2.362,2.3649,2.3675,2.3694,2.3705,2.3724,2.3762,2.3789,2.3825,2.3835,2.3846,2.3881,2.3879,2.388,2.3875,2.3893,2.3905,2.391,2.3856,2.3856,2.3856,2.3856,0,0,2.3521,2.3575,2.3581,2.3601,2.3641,2.3665,2.3695,2.3731,2.3748,2.3776,2.3802,2.3844,2.3845,2.3866,2.3879,2.3897,2.3921,2.3896,2.3897,2.3901,2.3962,2.3963,2.3968,2.3926,2.3927,2.3927,2.396,0,2.3548,2.3605,2.3625,2.3671,2.37,2.3715,2.3741,2.3768,2.3786,2.3813,2.3832,2.3862,2.3861,2.3874,2.3893,2.3914,2.3934,2.3912,2.3951,2.3952,2.3945,2.3974,2.3974,2.4004,2.3965,2.3965,2.3966,0,2.3589,2.3619,2.3669,2.3706,2.3719,2.3742,2.3777,2.3802,2.3833,2.3845,2.3868,2.388,2.3912,2.3904,2.3948,2.3933,2.395,2.3962,2.3964,2.397,2.3962,2.3982,2.4014,2.4019,2.3973,2.3972,2.3972,0,2.3597,2.365,2.3687,2.3703,2.3747,2.3764,2.3782,2.3813,2.3833,2.3862,2.3876,2.3908,2.3926,2.395,2.397,2.3963,2.4013,2.4007,2.4025,2.4024,2.4036,2.4036,2.4073,2.4044,2.4044,2.4043,2.4043,0,2.3627,2.3657,2.3692,2.3715,2.3749,2.3771,2.3804,2.3823,2.385,2.3876,2.3889,2.3914,2.3938,2.3966,2.3981,2.4016,2.4024,2.4034,2.4039,2.4035,2.4034,2.4047,2.4047,2.4045,2.4044,2.4044,2.4044,0,2.3644,2.3668,2.3709,2.3748,2.3758,2.3782,2.3814,2.3837,2.3855,2.3889,2.3897,2.3926,2.3959,2.3982,2.4023,2.4034,2.4072,2.4075,2.4063,2.4065,2.4082,2.4081,2.4132,2.414,2.4103,2.4103,2.4104,0,2.3662,2.3686,2.3727,2.3747,2.3766,2.3797,2.3818,2.384,2.3861,2.3899,2.3917,2.3951,2.3979,2.4031,2.4056,2.4088,2.4092,2.4108,2.4097,2.4093,2.4095,2.4094,2.4097,2.411,2.411,2.4111,2.4111,0,2.3693,2.3704,2.3735,2.377,2.3795,2.3824,2.3852,2.3866,2.3893,2.3916,2.3951,2.3973,2.4017,2.4051,2.4085,2.4104,2.4112,2.4114,2.412,2.4117,2.411,2.4116,2.4069,2.4113,2.4113,2.4112,2.4112,2.4112,2.3713,2.3735,2.3768,2.3802,2.3826,2.3852,2.3876,2.3898,2.3927,2.3965,2.3976,2.4012,2.4042,2.409,2.4109,2.4137,2.4136,2.4144,2.4147,2.4149,2.415,2.4103,2.4143,2.4143,2.4143,2.4143,2.4143,0,2.3746,2.3768,2.3799,2.3839,2.3866,2.3872,2.3903,2.3925,2.3957,2.3985,2.4014,2.4054,2.4087,2.4113,2.4147,2.4165,2.417,2.4173,2.4173,2.4178,2.4149,2.4141,2.4169,2.4169,2.4169,2.4169,2.4169,2.4169,2.3767,2.3806,2.3821,2.3871,2.3893,2.393,2.3948,2.3972,2.3995,2.4039,2.4067,2.4085,2.4112,2.4148,2.4179,2.4186,2.4198,2.4202,2.4209,2.4182,2.4179,2.4177,2.417,2.4204,2.4204,2.4237,2.4237,2.4237]}]]